AirNav   Air Wisconsin pilot careers
 
 923 users online  

ID74 Sulphur Creek Ranch Airport
Cascade, Idaho, USA

GOING TO CASCADE?


FAA INFORMATION EFFECTIVE 08 NOVEMBER 2018

Location

FAA Identifier: ID74
Lat/Long: 44-32-11.6510N / 115-21-03.3870W
44-32.194183N / 115-21.056450W
44.5365697 / -115.3509408
(estimated)
Elevation: 5835 ft. / 1779 m (estimated)
Variation: 16E (1995)
From city: 50 miles E of CASCADE, ID
Time zone: UTC -7 (UTC -6 during Daylight Saving Time)
Zip code: 83611

Airport Operations

Airport use: Private use. Permission required prior to landing
Activation date: 05/1996
Control tower: no
ARTCC: SALT LAKE CITY CENTER
FSS: BOISE FLIGHT SERVICE STATION
Attendance: JUN-NOV 24 HOURS/DAY
Wind indicator: lighted
Segmented circle: no

Nearby radio navigation aids

VOR radial/distance  VOR name  Freq  Var
DNJr092/39.0DONNELLY VOR/DME116.2019E

Airport Services

Runway Information

Runway 10/28

Dimensions: 3300 x 40 ft. / 1006 x 12 m
Surface: gravel/turf, in good condition
Operational restrictions: LAND TO THE WEST; TAKEOFF TO THE EAST.
RUNWAY 10  RUNWAY 28
Traffic pattern: leftleft
Obstructions: treestrees

Airport Ownership and Management from official FAA records

Ownership: Privately-owned
Owner: TOM T ALLEGREZZA
7153 W EMERALD
BOISE, ID 83704
Phone 208-377-1188
Manager: 7153 W EMERALD
BOISE ID 83704
208-377-1188
Phone 208-377-1188

Instrument Procedures

There are no published instrument procedures at ID74.

Some nearby airports with instrument procedures:

KMYL - Mc Call Municipal Airport (38 nm NW)
KBOI - Boise Air Terminal/Gowen Field (69 nm SW)
KSMN - Lemhi County Airport (72 nm NE)
S87 - Weiser Municipal Airport (72 nm W)
KMAN - Nampa Municipal Airport (76 nm SW)
 
Loc | Ops | Rwys | IFR | FBO | Links
Com | Nav | Svcs | Stats | Notes


 
Area around ID74 (Sulphur Creek Ranch Airport)
 
Road maps at: MapQuest Bing Google
 
Aerial photo
WARNING: Photo may not be current or correct
Aerial photo of ID74 (Sulphur Creek Ranch Airport)
Photo taken 05-Jul-2008

Do you have a better or more recent aerial photo of Sulphur Creek Ranch Airport that you would like to share? If so, please send us your photo.

 
Sectional chart

 
Airport distance calculator
Flying to Sulphur Creek Ranch Airport? Find the distance to fly.

From to ID74

Sunrise and sunset
Times for 17-Nov-2018
 Local
(UTC-7)
 Zulu
(UTC)
Morning civil twilight07:1014:10
Sunrise07:4214:42
Sunset17:1100:11
Evening civil twilight17:4300:43

Current date and time
Zulu (UTC)  17-Nov-2018 18:43:39
Local (UTC-7)  17-Nov-2018 11:43:39
 
METAR
KSNT 
29nm SE 
171751Z AUTO VRB03KT M01/M08 A3022 RMK AO1 SLP219 T10111078 11011 21106 51012
KMYL 
38nm NW 
171751Z AUTO 18004KT 10SM CLR 01/M07 A3021 RMK AO2 SLP249 T00061067 10006 21033 51013
KLLJ 
49nm E 
171755Z AUTO 00000KT 10SM CLR 02/M08 A3025 RMK AO2 SLP252 T00171078 10022 21083 50009
TAF
KMYL 
38nm NW 
171725Z 1718/1818 VRB03KT P6SM SKC
NOTAMs
Click for the latest NOTAMs
NOTAMs are issued by the DoD/FAA and will open in a separate window not controlled by AirNav.

 

 
 

Would you like to see your business listed on this page?

 If your business provides an interesting product or service to pilots, flight crews, aircraft, or users of the Sulphur Creek Ranch Airport, you should consider listing it here.  To start the listing process, click on the button below
 
Add a business
 

Other Pages about Sulphur Creek Ranch Airport

www.skypark.org/More_Strips.htm
 
Update a link
 
Copyright © AirNav, LLC. All rights reserved. Privacy Policy  Contact